DW3371 Weather Reports


Display with metric or nautical units.
time (UTC)temp
F
wind
direction
speed
MPH
gust
MPH
rain 1hr
in
rain 24hr
in
rain mn
in
humidity
%
barometer
mb
20260904002802 68 240 7.0 16.0 0.00 0.00 0.00 78 1009.3
20260903235759 68 219 7.0 16.0 0.00 0.00 0.00 77 1009.6
20260903232759 68 216 8.0 19.0 0.00 0.00 0.00 75 1010.4
20260903222759 69 0 10.0 21.0 0.00 0.00 0.00 74 1011.3
20260903215756 70 244 8.0 18.0 0.00 0.00 0.00 75 1011.1
20260903212755 70 252 11.0 19.0 0.00 0.00 0.00 74 1011.3
20260903202756 70 237 5.0 13.0 0.00 0.00 0.00 68 1011.9
20260903192756 71 253 10.0 19.0 0.00 0.00 0.00 64 1012.2
20260903185755 72 252 11.0 20.0 0.00 0.00 0.00 63 1012.3
20260903182755 74 246 10.0 20.0 0.00 0.00 0.00 60 1012.0
20260903175804 75 0 11.0 22.0 0.00 0.00 0.00 58 1011.9
20260903172755 76 0 10.0 21.0 0.00 0.00 0.00 59 1012.1
20260903152756 79 252 12.0 25.0 0.00 0.00 0.00 52 1012.4
20260903145802 81 273 11.0 20.0 0.00 0.00 0.00 51 1012.4
20260903142755 79 269 11.0 24.0 0.00 0.00 0.00 51 1012.8
20260903132754 77 0 9.0 19.0 0.00 0.00 0.00 56 1013.4
20260903125801 76 0 12.0 22.0 0.00 0.00 0.00 56 1013.5
20260903122754 76 271 12.0 24.0 0.00 0.00 0.00 58 1013.6
20260903115758 74 296 12.0 24.0 0.00 0.00 0.00 61 1013.5
20260903112756 75 248 12.0 24.0 0.00 0.00 0.00 60 1013.5
20260903105748 74 263 14.0 23.0 0.00 0.00 0.00 60 1013.7
20260903095746 72 0 12.0 26.0 0.00 0.00 0.00 67 1013.7
20260903092740 71 265 13.0 25.0 0.00 0.00 0.00 70 1013.6
20260903085740 71 0 10.0 19.0 0.00 0.00 0.00 72 1013.4
20260903082740 69 257 10.0 24.0 0.00 0.00 0.00 73 1013.5
20260903075744 69 266 12.0 23.0 0.00 0.00 0.00 77 1013.5
20260903072737 68 298 9.0 15.0 0.00 0.00 0.00 82 1012.8
20260903065739 67 0 8.0 16.0 0.00 0.00 0.00 84 1012.5
20260903055737 66 0 6.0 11.0 0.00 0.00 0.00 86 1012.1
20260903052742 66 257 7.0 14.0 0.00 0.00 0.00 86 1012.2
20260903045737 65 215 6.0 14.0 0.00 0.00 0.00 85 1012.1
20260903042736 66 265 7.0 16.0 0.00 0.00 0.00 84 1011.8
20260903035737 66 259 8.0 16.0 0.00 0.00 0.00 85 1012.1
20260903032737 66 252 8.0 17.0 0.00 0.00 0.00 85 1012.1
20260903025744 67 242 8.0 17.0 0.00 0.00 0.00 85 1011.8
20260903022739 67 273 9.0 17.0 0.00 0.00 0.00 84 1012.2
20260903015737 67 0 10.0 18.0 0.00 0.00 0.00 84 1011.9